Terminal Aerodrome Forecast
Issued by NWS

Home | Current Version | Previous Version | Text Only | Print | Product List | Glossary On
Versions: 1 2 3 4 5 6 7 8 9 10 11 12 13 14 15 16 17 18
000
FTUS44 KOHX 292300
TAFCKV
TAF
KCKV 292320Z 3000/3024 01012G17KT P6SM SCT080
     FM300300 35002KT P6SM SKC
      TEMPO 3010/3012 4SM BR
     FM301700 30007KT P6SM BKN250=

USA.gov is the U.S. government's official web portal to all federal, state and local government web resources and services.